カタログに戻る

STARLINK-3875

運用中通信VLEO
NORAD 52483·PAYLOAD·🇺🇸 United States

打ち上げ May 6, 2022 から Cape Canaveral Space Force Station

Loading…

次のパス (今後24時間)

TLE

最新Source: CelesTrak SupGP

元期: Sep 14, 2026, 21:26 UTC

1 52483C 22049AJ  26257.89354167  .00045185  00000+0  12931-2 0  2571
2 52483  53.1569 269.6083 0001200  95.1169  78.3154 15.35367320    15

AllMySatでSTARLINK-3875をリアルタイム追跡

Download on the App Store